{"data":{"norad_id":57451,"intl_designator":"2023-105X","name":"STARLINK-30216","alt_names":[],"object_type":"PAYLOAD","status":"ACTIVE","operator":null,"country":"US","launch_date":"2023-07-24","launch_site_code":"AFETR","launch_vehicle":null,"mission":null,"orbit_class":"UNKNOWN","rcs_meters":null,"size_class":null,"mass_kg":null,"dimensions":null,"purposes":["comms"],"wikipedia_slug":null,"has_3d_model":false,"image_url":null,"decayed_at":null,"tle_current":{"epoch":"2026-05-24T20:14:28.394016Z","epoch_age_seconds":88640,"freshness":"FRESH","line1":"1 57451U 23105X   26144.84338419  .00004101  00000+0  15854-3 0  9991","line2":"2 57451  43.0037 189.3480 0000967 305.8669  54.2093 15.27567758157079","mean_motion":15.27567758,"eccentricity":9.67e-5,"inclination_deg":43.0037,"raan_deg":189.348,"arg_perigee_deg":305.8669,"mean_anomaly_deg":54.2093,"bstar":0.00015854,"rev_number":15707,"period_min":94.267504171818,"perigee_km":482.42227299626,"apogee_km":483.74923347674,"semimajor_km":6861.2227532365,"source":"CELESTRAK","updated_at":"2026-05-25T13:38:18.322784Z"}}}